St-Martin-De-Belleville, France 16 day weather forecast

Slopes altitude range 1260 m - 3230m

Number of lifts: 174 Pistes: 160km

In some cases the lift and piste totals shown are for the ski domain (e.g. Three Valleys) rather than individual resort (e.g. Courchevel)

Overview

The 16 day weather forecast is fully updated 4 times every day.

    • Sat 20 APR 2019
    • Sat 20
    • 4C 14C
    • Sun 21 APR 2019
    • Sun 21
    • 5C 13C
    • Mon 22 APR 2019
    • Mon 22
    • 6C 15C
    • Tue 23 APR 2019
    • Tue 23
    • 6C 15C
    • Wed 24 APR 2019
    • Wed 24
    • 7C 15C
    • Thu 25 APR 2019
    • Thu 25
    • 6C 14C
    • Fri 26 APR 2019
    • Fri 26
    • -1C 0C
    • Sat 27 APR 2019
    • Sat 27
    • -1C 3C
    • Sun 28 APR 2019
    • Sun 28
    • -1C 3C
    • Mon 29 APR 2019
    • Mon 29
    • 2C 6C
    • Tue 30 APR 2019
    • Tue 30
    • 0C 11C
    • Wed 01 MAY 2019
    • Wed 01
    • 4C 11C
    • Thu 02 MAY 2019
    • Thu 02
    • 4C 12C
    • Fri 03 MAY 2019
    • Fri 03
    • 4C 11C
    • Sat 04 MAY 2019
    • Sat 04
    • 4C 14C
    • Sun 05 MAY 2019
    • Sun 05
    • 4C 13C

Date:

Time Type 0°C level Temp Chill Snow Cloud Speed Gust Dir Press
3:00 2528m 3°C 3_6 0cm 2% 6mph 6mph 1028mB
6:00 2563m 2°C 2_6 0cm 1% 6mph 8mph 1028mB
9:00 2548m 4°C 4_5 0cm 0% 5mph 7mph 1026mB
12:00 2650m 14°C 14_5 0cm 0% 5mph 7mph 1024mB
15:00 2732m 14°C 14_5 0cm 0% 5mph 8mph 1023mB
18:00 2689m 14°C 14_6 0cm 0% 6mph 7mph 1023mB
21:00 2738m 5°C 5_7 0cm 62% 7mph 9mph 1025mB
0:00 2710m 4°C 4_6 0cm 81% 6mph 7mph 1025mB
3:00 2651m 3°C 3_6 0cm 98% 6mph 7mph 1023mB
6:00 2655m 3°C 3_6 0cm 93% 6mph 8mph 1022mB
9:00 2655m 5°C 5_5 0cm 94% 5mph 7mph 1020mB
12:00 2680m 13°C 13_5 0cm 97% 5mph 8mph 1018mB
15:00 2685m 14°C 14_4 0cm 97% 4mph 6mph 1016mB
18:00 2603m 14°C 14_4 0cm 90% 4mph 5mph 1016mB
21:00 2738m 5°C 5_6 0cm 61% 6mph 7mph 1017mB
0:00 2786m 4°C 4_6 0cm 50% 6mph 7mph 1016mB
3:00 2696m 4°C 4_6 0cm 66% 6mph 9mph 1014mB
6:00 2718m 4°C 4_7 0cm 79% 7mph 11mph 1012mB
9:00 2828m 6°C 6_7 0cm 77% 7mph 10mph 1009mB
12:00 2822m 15°C 15_7 0cm 67% 7mph 10mph 1006mB
15:00 2802m 15°C 15_7 0cm 83% 7mph 10mph 1003mB
18:00 2784m 15°C 15_7 0cm 85% 7mph 11mph 1002mB
21:00 2724m 6°C 6_6 0cm 100% 6mph 10mph 1003mB
0:00 2628m 6°C 6_7 0cm 100% 7mph 10mph 1002mB
3:00 2595m 5°C 5_6 0cm 99% 6mph 8mph 1001mB
6:00 2594m 5°C 5_5 0cm 99% 5mph 7mph 1001mB
9:00 2589m 6°C 6_3 0cm 85% 3mph 4mph 1000mB
12:00 2724m 15°C 15_4 0cm 77% 4mph 5mph 1000mB
15:00 2731m 15°C 15_4 0cm 91% 4mph 4mph 999mB
18:00 2735m 15°C 15_2 0cm 88% 2mph 3mph 1001mB
21:00 2700m 6°C 6_5 0cm 37% 5mph 5mph 1004mB
0:00 2726m 5°C 5_5 0cm 46% 5mph 6mph 1006mB
3:00 2777m 5°C 5_6 0cm 69% 6mph 7mph 1006mB
6:00 2814m 4°C 4_7 0cm 53% 7mph 10mph 1006mB
9:00 2735m 7°C 7_7 0cm 100% 7mph 19mph 1007mB
12:00 2773m 15°C 15_6 0cm 99% 6mph 13mph 1008mB
15:00 2732m 14°C 14_6 0cm 98% 6mph 11mph 1009mB
18:00 2670m 14°C 14_4 0cm 99% 4mph 6mph 1010mB
21:00 2675m 7°C 7_5 0cm 99% 5mph 7mph 1012mB
0:00 2696m 5°C 5_5 0cm 97% 5mph 6mph 1012mB
3:00 2584m 4°C 4_5 0cm 72% 5mph 6mph 1012mB
6:00 2582m 4°C 4_7 0cm 50% 7mph 10mph 1012mB
9:00 2576m 6°C 6_7 0cm 40% 7mph 11mph 1011mB
12:00 2694m 14°C 14_8 0cm 52% 8mph 16mph 1010mB
15:00 2756m 14°C 14_8 0cm 31% 8mph 17mph 1010mB
18:00 2280m 14°C 14_4 0cm 56% 4mph 5mph 1011mB
21:00 1994m 3°C 3_4 0cm 100% 4mph 5mph 1012mB
0:00 1584m 1°C 1_6 5cm 100% 6mph 9mph 1012mB
3:00 1304m -1°C -1_5 7cm 100% 5mph 8mph 1013mB
6:00 1296m -2°C -2_6 6cm 100% 6mph 9mph 1014mB
9:00 1336m -1°C -1_6 3cm 100% 6mph 8mph 1016mB
12:00 1465m 0°C 0_5 2cm 100% 5mph 8mph 1016mB
15:00 1527m 1°C 1_6 1cm 100% 6mph 9mph 1016mB
18:00 1458m 1°C 1_6 1cm 100% 6mph 10mph 1019mB
21:00 1368m -1°C -1_5 1cm 100% 5mph 7mph 1021mB
0:00 1378m -1°C -1_5 1cm 100% 5mph 7mph 1023mB
3:00 1326m -1°C -1_4 1cm 100% 4mph 5mph 1023mB
6:00 1335m -2°C -2_3 1cm 100% 3mph 4mph 1023mB
9:00 1556m -1°C -1_4 1cm 95% 4mph 7mph 1023mB
12:00 1727m 3°C 3_4 1cm 94% 4mph 7mph 1022mB
15:00 1978m -1°C -1_9 1cm 97% 9mph 12mph 1023mB
18:00 1922m -1°C -1_7 1cm 97% 7mph 11mph 1024mB
21:00 1813m -3°C -3_5 0cm 95% 5mph 7mph 1026mB
0:00 1404m -5°C -5_4 0cm 89% 4mph 5mph 1026mB
3:00 1282m -6°C -6_4 0cm 46% 4mph 4mph 1024mB
6:00 2103m -6°C -6_3 0cm 68% 3mph 3mph 1023mB
9:00 2532m -1°C -1_4 0cm 26% 4mph 5mph 1022mB
12:00 2602m 3°C 3_5 0cm 53% 5mph 6mph 1020mB
15:00 2596m 2°C 2_5 0cm 96% 5mph 6mph 1019mB
18:00 2584m 3°C 3_4 0cm 95% 4mph 5mph 1019mB
21:00 2211m -1°C -1_5 0cm 93% 5mph 6mph 1021mB
0:00 2013m -2°C -2_6 0cm 66% 6mph 6mph 1020mB
3:00 2153m -2°C -2_6 0cm 0% 6mph 7mph 1020mB
6:00 2898m -2°C -2_4 0cm 1% 4mph 5mph 1019mB
9:00 2864m 2°C 2_3 0cm 4% 3mph 3mph 1017mB
12:00 2846m 6°C 6_4 0cm 29% 4mph 4mph 1015mB
15:00 2824m 5°C 5_4 0cm 95% 4mph 5mph 1013mB
18:00 2776m 5°C 5_3 0cm 94% 3mph 4mph 1013mB
21:00 2784m 1°C 1_4 0cm 83% 4mph 5mph 1015mB
0:00 2212m -1°C -1_6 0cm 52% 6mph 7mph 1015mB
Afternoon 0mm 0 2888m 11°C 11_4 0cm 7% 4mph 6mph 1011mB
Morning 0.015625mm 0.125 3044m 4°C 4_7 0cm 55% 7mph 8mph 1011mB
Afternoon 0.0104167mm 0 3012m 11°C 11_9 0cm 88% 9mph 11mph 1008mB
Morning 0.0677083mm 0 3003m 4°C 4_10 0cm 73% 10mph 15mph 1010mB
Afternoon 0.177083mm 0.75 3071m 12°C 12_6 0cm 81% 6mph 8mph 1009mB
Morning 0.609375mm 5.1875 3028m 5°C 5_5 0cm 84% 5mph 6mph 1012mB
Afternoon 0.354167mm 2.625 3069m 11°C 11_4 0cm 59% 4mph 5mph 1010mB
Morning 0.557292mm 3.625 3120m 5°C 5_3 0cm 84% 3mph 4mph 1013mB
Afternoon 0.104167mm 1.0625 3214m 14°C 14_5 0cm 51% 5mph 5mph 1011mB
Morning 0.255208mm 2.9375 3299m 5°C 5_2 0cm 47% 2mph 3mph 1013mB
Afternoon 0.161458mm 1.5625 3179m 13°C 13_6 0cm 71% 6mph 7mph 1010mB
Morning 0.255208mm 0.75 3128m 5°C 5_3 0cm 92% 3mph 4mph 1013mB

16 day outlook at a glance

Forecast issued: 20/04/2019 06:59:37

Chat

Your comments and questions. In a resort? Let us know what it's like!


Characters left 250

For terms and conditions see Readers Comments on the Cookie and privacy policy page.